Flughafen Köln/Bonn

Aus VATSIM Germany
Dies ist die bestätigte sowie die neueste Version dieser Seite.
Wechseln zu:Navigation, Suche
UnderCon icon.svg.pngDieser Artikel ist noch im Aufbau. Der Artikel kann daher unvollständig sein oder Fehler enthalten!


Cologne Bonn Airport
ICAO / IATA EDDK / CGN
Koordinaten N50°51′57″  E007°8′34″
Höhe 92 m / 302 ft
Wetter EDDK 190420Z 15010KT 9999 OVC016 04/01 Q1029 NOSIG
Pisten
Platzfrequenzen
Nur für Flugsimulationszwecke!

.


Informationen für Piloten und Lotsen
Pilotenbriefing

Standard Operating Procedures (SOP)

Letters of Agreement (LoAs)

Airport Charts


Vorlage:Navigationsleiste Flughäfen EDLL